Starlink 30707

operational
NORAD ID: 57949 Int'l Des: 2023-148 Owner: SPXS Country: US Constellation: starlink
LEOCIRCULAR

Starlink 30707について

説明を読み込み中...

リアルタイム位置

3D地球を読み込み中...

次回通過

高度履歴

Altitude vs Time

uPlot chart will show altitude changes over time

軌道要素

1 57949U 23148Q 25350.49854148 -.00000119 00000-0 81101-5 0 9998
2 57949 53.1611 50.8211 0001378 63.6026 296.5116 15.30193152125684
Epoch: Dec 16, 2025 • Age: 24 hours

現在のステータス

高度 475.7 km
速度 7.63 km/s
衛星直下点 20.54°N, 58.67°W
打ち上げ日 Sep 25, 2023
運用期間 2.2 years
タイプ internet

技術仕様

分類 Payload
質量 730.00 kg
乾燥質量 700.00 kg
総質量 730.00 kg
長さ 0.30 m
直径 4.10 m
スパン 29.00 m
形状 Box + pan
製造者 SPXS
バスタイプ Starlink V2M
フェーズステータス In Orbit
所有者/国 SPXS/US

大規模コンステレーション

Loading constellations...